Weather History for Grand Etang, NS

Change the Weather History Date:

Wednesday, December 21, 2011

  Actual Average Record
Temperature  
Mean Temperature 32 °F -  
Max Temperature 38 °F - - ()
Min Temperature 25 °F - - ()
Degree Days  
Heating Degree Days 34    
Moisture  
Dew Point 22 °F    
Average Humidity 72    
Maximum Humidity 84    
Minimum Humidity 59    
Precipitation  
Precipitation 0.00 in - - ()
Sea Level Pressure  
Sea Level Pressure 30.08 in    
Wind  
Wind Speed 19 mph ()    
Max Wind Speed 28 mph    
Max Gust Speed 36 mph    
T = Trace of Precipitation, MM = Missing Value Source: Averaged Metar Reports

Daily Weather History Graph

Daily Weather History Graph

Search for Another Location

Airport:

Trip Planner

Search our weather history database for the weather conditions in past years. The results will help you decide how hot, cold, wet, or windy it might be!

Date:

Astronomy

Dec. 21, 2011 Rise Set
Actual Time 7:45 AM AST 4:19 PM AST
Civil Twilight 7:10 AM AST 4:54 PM AST
Nautical Twilight 6:31 AM AST 5:32 PM AST
Astronomical Twilight 5:54 AM AST 6:09 PM AST
Moon 4:08 AM AST (12/21) 1:38 PM AST (12/21)
Length of Visible Light 9h 44m
Length of Day
8h 34m
Waning Crescent, 13% of the Moon is Illuminated
Dec 21
Waning Crescent
Dec 24
New
Jan 1
First Quarter
Jan 9
Full
Jan 16
Last Quarter

Hourly Weather History & Observations

Time (AST) Temp. Windchill Dew Point Humidity Pressure Visibility Wind Dir Wind Speed Gust Speed Precip Events Conditions
12:00 AM 27.7 °F 12.3 °F 21.7 °F 78% 30.02 in - WNW 27.6 mph - N/A   Unknown
12:20 AM 27.3 °F 12.4 °F 21.0 °F 77% - - WNW 25.3 mph 34.5 mph N/A   Unknown
12:40 AM 27.1 °F 11.6 °F 20.1 °F 75% - - WNW 27.6 mph 34.5 mph N/A   Unknown
1:00 AM 27.5 °F 12.0 °F 20.7 °F 75% 30.04 in - WNW 27.6 mph 33.4 mph N/A   Unknown
1:20 AM 27.5 °F 12.6 °F 20.3 °F 74% - - WNW 25.3 mph - N/A   Unknown
1:40 AM 27.0 °F 11.6 °F 19.4 °F 73% - - WNW 26.5 mph 35.7 mph N/A   Unknown
2:00 AM 27.5 °F 12.3 °F 21.2 °F 77% 30.06 in - WNW 26.5 mph - N/A   Unknown
2:20 AM 27.1 °F 13.1 °F 20.8 °F 77% - - WNW 21.9 mph 32.2 mph N/A   Unknown
2:40 AM 27.1 °F 13.4 °F 20.5 °F 76% - - WNW 20.7 mph - N/A   Unknown
3:00 AM 27.1 °F 12.4 °F 19.8 °F 74% 30.09 in - WNW 24.2 mph - N/A   Unknown
3:20 AM 27.3 °F 13.6 °F 21.2 °F 78% - - WNW 20.7 mph 27.6 mph N/A   Unknown
3:40 AM 27.0 °F 13.2 °F 19.8 °F 74% - - West 20.7 mph 27.6 mph N/A   Unknown
4:00 AM 27.5 °F 13.5 °F 20.8 °F 76% 30.09 in - WNW 21.9 mph - N/A   Unknown
4:20 AM 27.5 °F 14.6 °F 19.6 °F 72% - - West 18.4 mph 26.5 mph N/A   Unknown
4:40 AM 27.7 °F 16.1 °F 20.8 °F 75% - - West 15.0 mph - N/A   Unknown
5:00 AM 28.4 °F 15.8 °F 22.3 °F 78% 30.09 in - West 18.4 mph - N/A   Unknown
5:20 AM 28.2 °F 14.8 °F 21.4 °F 76% - - West 20.7 mph - N/A   Unknown
5:40 AM 27.7 °F 14.8 °F 20.7 °F 75% - - West 18.4 mph 25.3 mph N/A   Unknown
6:00 AM 27.9 °F 14.4 °F 22.5 °F 80% 30.11 in - WSW 20.7 mph - N/A   Unknown
6:20 AM 27.3 °F 14.4 °F 21.4 °F 78% - - WSW 18.4 mph 24.2 mph N/A   Unknown
6:40 AM 27.1 °F 14.9 °F 21.4 °F 79% - - WSW 16.1 mph 23.0 mph N/A   Unknown
7:00 AM 27.0 °F 12.8 °F 21.4 °F 79% 30.14 in - WSW 21.9 mph - N/A   Unknown
7:40 AM 26.4 °F 14.0 °F 20.5 °F 78% - - WSW 16.1 mph - N/A   Unknown
8:00 AM 25.9 °F 12.9 °F 19.0 °F 75% 30.15 in - SW 17.3 mph - N/A   Unknown
8:20 AM 26.4 °F 13.6 °F 19.2 °F 74% - - SW 17.3 mph - N/A   Unknown
8:40 AM 26.2 °F 13.8 °F 19.8 °F 76% - - SW 16.1 mph - N/A   Unknown
9:00 AM 26.1 °F 12.7 °F 17.4 °F 70% 30.16 in - SW 18.4 mph - N/A   Unknown
9:20 AM 27.5 °F 15.0 °F 19.9 °F 73% - - SW 17.3 mph - N/A   Unknown
9:40 AM 28.2 °F 16.3 °F 20.7 °F 73% - - SW 16.1 mph 21.9 mph N/A   Unknown
10:00 AM 28.2 °F 15.5 °F 19.4 °F 70% 30.16 in - SW 18.4 mph - N/A   Unknown
10:20 AM 29.1 °F 16.7 °F 19.8 °F 68% - - SW 18.4 mph - N/A   Unknown
10:40 AM 29.5 °F 17.6 °F 19.4 °F 66% - - SW 17.3 mph - N/A   Unknown
11:00 AM 30.2 °F 17.8 °F 20.3 °F 67% 30.15 in - SW 19.6 mph - N/A   Unknown
11:20 AM 29.8 °F 17.7 °F 22.3 °F 73% - - SW 18.4 mph 25.3 mph N/A   Unknown
11:40 AM 29.5 °F 18.0 °F 21.2 °F 71% - - SSW 16.1 mph 24.2 mph N/A   Unknown
12:00 PM 29.3 °F 16.6 °F 19.8 °F 68% 30.14 in - SSW 19.6 mph - N/A   Unknown
12:20 PM 29.8 °F 18.9 °F 21.4 °F 71% - - SSW 15.0 mph 23.0 mph N/A   Unknown
12:40 PM 28.8 °F 17.5 °F 21.7 °F 75% - - SSW 15.0 mph 21.9 mph N/A   Unknown
1:00 PM 28.6 °F 16.4 °F 21.6 °F 75% 30.12 in - South 17.3 mph - N/A   Unknown
1:20 PM 29.1 °F 18.9 °F 21.0 °F 72% - - South 12.7 mph 19.6 mph N/A   Unknown
1:40 PM 30.4 °F 20.0 °F 20.3 °F 66% - - SSW 13.8 mph - N/A   Unknown
2:00 PM 30.6 °F 19.8 °F 18.9 °F 62% 30.09 in - South 15.0 mph - N/A   Unknown
2:20 PM 29.8 °F 20.3 °F 17.6 °F 60% - - South 11.5 mph 18.4 mph N/A   Unknown
2:40 PM 29.7 °F 20.1 °F 18.1 °F 62% - - South 11.5 mph - N/A   Unknown
3:00 PM 30.0 °F 19.5 °F 17.8 °F 60% 30.09 in - South 13.8 mph - N/A   Unknown
3:20 PM 31.1 °F 21.4 °F 18.1 °F 59% - - South 12.7 mph - N/A   Unknown
3:40 PM 30.4 °F 21.0 °F 18.3 °F 61% - - South 11.5 mph 19.6 mph N/A   Unknown
4:00 PM 29.8 °F 19.8 °F 18.5 °F 63% 30.08 in - South 12.7 mph - N/A   Unknown
4:20 PM 31.1 °F 20.1 °F 19.0 °F 61% - - SSE 16.1 mph 25.3 mph N/A   Unknown
4:40 PM 31.3 °F 21.1 °F 19.8 °F 62% - - South 13.8 mph 20.7 mph N/A   Unknown
5:00 PM 30.9 °F 19.8 °F 19.0 °F 61% 30.06 in - SSE 16.1 mph - N/A   Unknown
5:20 PM 31.5 °F 20.9 °F 19.6 °F 62% - - SSE 15.0 mph 21.9 mph N/A   Unknown
5:40 PM 31.1 °F 21.9 °F 19.8 °F 63% - - South 11.5 mph - N/A   Unknown
6:00 PM 31.6 °F 20.4 °F 19.2 °F 60% 30.07 in - SSE 17.3 mph 23.0 mph N/A   Unknown
6:20 PM 31.6 °F 21.6 °F 18.9 °F 59% - - South 13.8 mph 20.7 mph N/A   Unknown
6:40 PM 31.5 °F 19.4 °F 19.6 °F 62% - - SSE 19.6 mph 27.6 mph N/A   Unknown
7:00 PM 33.1 °F 21.5 °F 21.7 °F 63% 30.04 in - SSE 19.6 mph 27.6 mph N/A   Unknown
7:20 PM 33.3 °F 22.5 °F 23.0 °F 66% - - SSE 17.3 mph 25.3 mph N/A   Unknown
7:40 PM 33.4 °F 23.5 °F 24.4 °F 70% - - South 15.0 mph 23.0 mph N/A   Unknown
8:00 PM 33.8 °F 22.5 °F 25.2 °F 71% 30.04 in - South 19.6 mph - N/A   Unknown
8:20 PM 34.7 °F 25.1 °F 26.8 °F 73% - - South 15.0 mph 21.9 mph N/A   Unknown
8:40 PM 34.9 °F 25.7 °F 27.9 °F 76% - - South 13.8 mph 20.7 mph N/A   Unknown
9:00 PM 35.1 °F 24.8 °F 28.9 °F 78% 29.99 in - SSE 17.3 mph 31.1 mph N/A   Unknown
9:20 PM 35.8 °F 24.5 °F 29.8 °F 79% - - SSE 21.9 mph 33.4 mph N/A   Unknown
9:40 PM 36.3 °F 26.4 °F 30.0 °F 78% - - South 17.3 mph 25.3 mph N/A   Unknown
10:00 PM 36.5 °F 25.4 °F 30.9 °F 80% 29.96 in - South 21.9 mph - N/A   Unknown
10:20 PM 36.9 °F 27.8 °F 31.5 °F 81% - - South 15.0 mph 21.9 mph N/A   Unknown
10:40 PM 36.9 °F 27.5 °F 31.1 °F 80% - - SSE 16.1 mph 23.0 mph N/A   Unknown
11:00 PM 37.8 °F 28.3 °F 32.0 °F 80% 29.90 in - SSE 17.3 mph 28.8 mph N/A   Unknown
11:20 PM 38.1 °F 28.1 °F 31.3 °F 76% - - SSE 19.6 mph 31.1 mph N/A   Unknown
11:40 PM 38.1 °F 28.8 °F 33.8 °F 84% - - SSE 17.3 mph 27.6 mph N/A   Unknown